(74814) = 1999 TD8

Discovered at Fountain Hills on 1999-10-05 by C. W. Juels.

Orbit

Orbit type: Main Belt

Note: WebGL enabled browser required.

epoch2023-09-13.0
epoch JD2460200.5
perihelion date2021-03-11.45756
perihelion JD2459284.95756
argument of perihelion (°)358.50567
ascending node (°)37.43274
inclination (°)0.84357
eccentricity0.2049572
perihelion distance (AU)1.8511645
Tisserand w.r.t. Jupiter3.5
ΔV w.r.t. Earth (km/sec)8.5
semimajor axis (AU)2.3283836
mean anomaly (°)253.98059
mean daily motion (°/day)0.27741000
aphelion distance (AU)2.806
period (years)3.55
P-vector [x]0.80964671
P-vector [y]0.53863893
P-vector [z]0.23311009
Q-vector [x]-0.58684932
Q-vector [y]0.73690469
Q-vector [z]0.33552847
absolute magnitude16.14
phase slope0.15
uncertainty0
referenceMPEC 2023-X132
observations used1162
oppositions20
arc length (days)15239
first opposition used1981
last opposition used2023
residual rms (arc-secs)0.71
perturbers coarse indicatorM-v
perturbers precise indicator003Ek
first observation date used1981-09-29.0
last observation date used2023-06-20.0
computer nameMPCLINUX
JD of orbit computation2456700.279626
perihelion JD uncertainty (days)4.3730E-05
argument of perihelion uncertainty (°)2.3526E-04
ascending node uncertainty (°)2.3494E-04
inclination uncertainty (°)3.5176E-06
eccentricity uncertainty 3.0587E-08
perihelion distance uncertainty (AU)7.2751E-08
Minimum Orbit Intersection Distances (in AU)
for orbit epoch: 2460200.5, reference: E2023-XD2
Mercury1.52465
Venus1.12822
Earth0.85714
Mars0.38208
Jupiter2.61616
Saturn6.82712
Uranus15.7694
Neptune27.8963

Observations

1171 total observations over interval: 1981 09 29.47097 – 2023 06 20.391641
These data are available for download (format description).

Date (UT) J2000 RA J2000 Dec Magn Location Ref
1981 09 29.47097 21 35 38.71 -15 36 38.2   260 – Siding Spring Observatory-DSS MPS 16529
1981 09 29.52305 21 35 38.35 -15 36 36.8   260 – Siding Spring Observatory-DSS MPS 16529
1990 03 01.25000 10 11 29.10 +12 31 48.2   261 – Palomar Mountain-DSS MPS 16529
1990 03 01.28472 10 11 27.29 +12 31 57.9   261 – Palomar Mountain-DSS MPS 16529
1992 10 05.41806 03 45 59.68 +19 49 38.3   261 – Palomar Mountain-DSS MPS 16529
1992 10 05.45625 03 45 59.95 +19 49 41.5   261 – Palomar Mountain-DSS MPS 16529
1992 11 16.49306 03 21 30.70 +18 59 19.6 16.8   399 – Kushiro MPS 43120
1992 11 16.50764 03 21 29.76 +18 59 16.4   399 – Kushiro MPS 43120
1997 02 08.42634 09 26 39.17 +16 33 53.0 19.4 V 566 – Haleakala-NEAT/GEODSS MPS 16529
1997 02 08.43479 09 26 38.62 +16 33 55.9 19.1 V 566 – Haleakala-NEAT/GEODSS MPS 16529
1997 02 08.44325 09 26 38.00 +16 33 58.5 19.2 V 566 – Haleakala-NEAT/GEODSS MPS 16529
1999 09 05.39006 01 46 55.43 +10 10 31.8 19.2 R 699 – Lowell Observatory-LONEOS MPS 13676
1999 09 05.42074 01 46 55.77 +10 10 34.4   699 – Lowell Observatory-LONEOS MPS 13676
1999 09 05.45145 01 46 56.13 +10 10 36.6   699 – Lowell Observatory-LONEOS MPS 13676
1999 10 01.34029 01 40 27.16 +09 44 58.4 18.3 R 699 – Lowell Observatory-LONEOS MPS 12004
1999 10 01.37086 01 40 25.78 +09 44 53.4   699 – Lowell Observatory-LONEOS MPS 12004
1999 10 01.40147 01 40 24.47 +09 44 46.6   699 – Lowell Observatory-LONEOS MPS 12004
1999 10 02.32411 01 39 47.54 +09 41 51.3 17.5 R 703 – Catalina Sky Survey MPS 6909
1999 10 02.33651 01 39 47.00 +09 41 48.8 17.7 R 703 – Catalina Sky Survey MPS 6909
1999 10 02.34882 01 39 46.47 +09 41 46.6 17.3 R 703 – Catalina Sky Survey MPS 6909
1999 10 02.36112 01 39 45.90 +09 41 43.9 17.6 R 703 – Catalina Sky Survey MPS 6909
1999 10 04.30184 01 38 23.79 +09 35 09.5 18.0   704 – Lincoln Laboratory ETS, New Mexico MPS 6909
1999 10 04.31529 01 38 23.13 +09 35 06.6 18.1   704 – Lincoln Laboratory ETS, New Mexico MPS 6909
1999 10 04.32866 01 38 22.53 +09 35 03.6 18.3   704 – Lincoln Laboratory ETS, New Mexico MPS 6909
1999 10 04.34207 01 38 21.86 +09 35 01.7 18.4   704 – Lincoln Laboratory ETS, New Mexico MPS 6909
1999 10 04.35545 01 38 21.24 +09 34 58.4 18.1   704 – Lincoln Laboratory ETS, New Mexico MPS 6909
1999 10 05.28439 01 37 40.20 +09 31 40.6 17.5   678 – Fountain Hills MPS 6909
1999 10 05.29773 01 37 39.52 +09 31 37.2 17.2   678 – Fountain Hills MPS 6909
1999 10 05.31109 01 37 38.92 +09 31 34.6 17.5   678 – Fountain Hills MPS 6909
1999 10 07.37096 01 36 03.47 +09 23 53.5 19.1   704 – Lincoln Laboratory ETS, New Mexico MPS 6909
1999 10 07.38167 01 36 02.89 +09 23 52.7 18.8   704 – Lincoln Laboratory ETS, New Mexico MPS 6909
1999 10 07.39237 01 36 02.39 +09 23 49.7 18.8   704 – Lincoln Laboratory ETS, New Mexico MPS 6909
1999 10 07.40312 01 36 01.86 +09 23 47.1 18.6   704 – Lincoln Laboratory ETS, New Mexico MPS 6909
1999 10 08.31387 01 35 18.56 +09 20 16.0 17.5   678 – Fountain Hills MPS 6909
1999 10 08.32100 01 35 18.20 +09 20 13.1 17.5   678 – Fountain Hills MPS 6909
1999 10 08.33513 01 35 17.43 +09 20 10.8 18.1   678 – Fountain Hills MPS 6909
1999 10 09.28735 01 34 31.14 +09 16 25.3 17.8   704 – Lincoln Laboratory ETS, New Mexico MPS 12004
1999 10 09.30064 01 34 30.44 +09 16 21.9 18.1   704 – Lincoln Laboratory ETS, New Mexico MPS 12004
1999 10 09.31366 01 34 29.75 +09 16 18.7 18.0   704 – Lincoln Laboratory ETS, New Mexico MPS 12004
1999 10 09.32701 01 34 29.05 +09 16 15.6 18.2   704 – Lincoln Laboratory ETS, New Mexico MPS 12004
1999 10 09.34048 01 34 28.32 +09 16 12.2 18.2   704 – Lincoln Laboratory ETS, New Mexico MPS 12004
1999 10 10.23094 01 33 44.55 +09 12 36.9 16.9   678 – Fountain Hills MPS 6909
1999 10 10.25137 01 33 43.45 +09 12 31.5 17.6   678 – Fountain Hills MPS 6909
1999 10 13.19781 01 31 13.43 +09 00 17.4 16.8 R 699 – Lowell Observatory-LONEOS MPS 12004
1999 10 13.22834 01 31 11.78 +09 00 09.9   699 – Lowell Observatory-LONEOS MPS 12004
1999 10 13.25889 01 31 10.04 +09 00 01.5   699 – Lowell Observatory-LONEOS MPS 12004
1999 10 14.26566 01 30 17.55 +08 55 45.4 17.5   678 – Fountain Hills MPS 6909
1999 10 14.31962 01 30 14.59 +08 55 31.2 17.1   678 – Fountain Hills MPS 6909
1999 10 15.40959 01 29 17.19 +08 50 51.0 17.5   704 – Lincoln Laboratory ETS, New Mexico MPS 12004
1999 10 15.42508 01 29 16.33 +08 50 47.0 18.0   704 – Lincoln Laboratory ETS, New Mexico MPS 12004
1999 10 15.44038 01 29 15.51 +08 50 42.8 17.4   704 – Lincoln Laboratory ETS, New Mexico MPS 12004
1999 10 15.45573 01 29 14.67 +08 50 38.2 18.2   704 – Lincoln Laboratory ETS, New Mexico MPS 12004
1999 10 15.47108 01 29 13.79 +08 50 33.7 18.1   704 – Lincoln Laboratory ETS, New Mexico MPS 12004
1999 10 17.90838 01 27 06.24 +08 40 02.7 18.0   120 – Visnjan MPS 6909
1999 10 17.92258 01 27 05.48 +08 39 59.3   120 – Visnjan MPS 6909
1999 10 17.93170 01 27 04.95 +08 39 57.1   120 – Visnjan MPS 6909
1999 10 19.19466 01 25 58.77 +08 34 32.9 18.4   704 – Lincoln Laboratory ETS, New Mexico MPS 12004
1999 10 19.20842 01 25 57.99 +08 34 29.2 17.9   704 – Lincoln Laboratory ETS, New Mexico MPS 12004
1999 10 19.22215 01 25 57.23 +08 34 25.6 17.8   704 – Lincoln Laboratory ETS, New Mexico MPS 12004
1999 10 19.23595 01 25 56.45 +08 34 22.2 17.9   704 – Lincoln Laboratory ETS, New Mexico MPS 12004
1999 10 19.24974 01 25 55.67 +08 34 18.8 18.0   704 – Lincoln Laboratory ETS, New Mexico MPS 12004
1999 10 27.64127 01 18 52.85 +07 59 52.3   327 – Peking Observatory, Xinglong Station MPS 7374
1999 10 27.66027 01 18 51.88 +07 59 46.9 17.7   327 – Peking Observatory, Xinglong Station MPS 7374
1999 10 27.67796 01 18 50.99 +07 59 43.0   327 – Peking Observatory, Xinglong Station MPS 7374
1999 10 28.13359 01 18 30.23 +07 58 00.6 18.5   678 – Fountain Hills MPS 7374
1999 10 28.15170 01 18 29.25 +07 57 55.9 18.4   678 – Fountain Hills MPS 7374
1999 10 28.65203 01 18 05.68 +07 56 04.3 18.1   327 – Peking Observatory, Xinglong Station MPS 7374
1999 10 28.66730 01 18 04.90 +07 56 00.5 17.9   327 – Peking Observatory, Xinglong Station MPS 7374
1999 10 28.68282 01 18 04.12 +07 55 56.6 17.6   327 – Peking Observatory, Xinglong Station MPS 7374
1999 10 29.62068 01 17 21.68 +07 52 32.3 17.6   327 – Peking Observatory, Xinglong Station MPS 7374
1999 10 29.64229 01 17 20.65 +07 52 27.4   327 – Peking Observatory, Xinglong Station MPS 7374
1999 10 29.66236 01 17 19.65 +07 52 23.0   327 – Peking Observatory, Xinglong Station MPS 7374
1999 10 30.17436 01 16 57.17 +07 50 34.8 17.8 R 699 – Lowell Observatory-LONEOS MPS 12004
1999 10 30.19982 01 16 56.04 +07 50 29.8   699 – Lowell Observatory-LONEOS MPS 12004
1999 10 30.22527 01 16 54.77 +07 50 23.4   699 – Lowell Observatory-LONEOS MPS 12004
1999 11 05.24558 01 12 54.10 +07 31 38.8 18.1   704 – Lincoln Laboratory ETS, New Mexico MPS 8559
1999 11 05.26187 01 12 53.44 +07 31 36.0 18.2   704 – Lincoln Laboratory ETS, New Mexico MPS 8559
1999 11 05.27810 01 12 52.84 +07 31 33.4 18.5   704 – Lincoln Laboratory ETS, New Mexico MPS 8559
1999 11 05.29429 01 12 52.23 +07 31 30.4 18.5   704 – Lincoln Laboratory ETS, New Mexico MPS 8559
1999 11 05.31053 01 12 51.62 +07 31 29.0 19.2   704 – Lincoln Laboratory ETS, New Mexico MPS 8559
1999 11 09.14185 01 10 50.76 +07 22 34.5 18.5   704 – Lincoln Laboratory ETS, New Mexico MPS 8559
1999 11 09.15623 01 10 50.23 +07 22 32.7 18.7   704 – Lincoln Laboratory ETS, New Mexico MPS 8559
1999 11 09.17060 01 10 49.80 +07 22 30.8 19.4   704 – Lincoln Laboratory ETS, New Mexico MPS 8559
1999 11 09.18499 01 10 49.36 +07 22 29.6 19.2   704 – Lincoln Laboratory ETS, New Mexico MPS 8559
1999 11 09.19937 01 10 48.83 +07 22 27.6 18.9   704 – Lincoln Laboratory ETS, New Mexico MPS 8559
1999 11 12.15322 01 09 35.04 +07 17 29.6 18.4   704 – Lincoln Laboratory ETS, New Mexico MPS 7374
1999 11 12.16788 01 09 34.59 +07 17 27.2 18.7   704 – Lincoln Laboratory ETS, New Mexico MPS 7374
1999 11 12.19674 01 09 33.87 +07 17 25.7 18.8   704 – Lincoln Laboratory ETS, New Mexico MPS 7374
1999 11 12.21119 01 09 33.44 +07 17 24.6 18.5   704 – Lincoln Laboratory ETS, New Mexico MPS 7374
1999 11 16.14291 01 08 23.75 +07 13 33.3 18.5   704 – Lincoln Laboratory ETS, New Mexico MPS 8559
